Flag for Spain Weather past 2 weeks in Madrid, Spain

Now
64 °F

Scattered clouds.


Feels Like: 64 °F
Forecast: 48 / 70 °F
Wind: 6 mph from South

Location: Madrid / Cuatro Vientos

Current Time: Apr 28, 2015 at 4:26:01 PM

Latest Report: Apr 28, 2015 at 4:00 PM


Visibility: N/A

Pressure: 30.09 "Hg

Humidity: 49%

Dew point: 45 °F

Location of MadridLocation

Historic Weather in Madrid — Graph

°F

Madrid temperature yesterday

Maximum temperature yesterday: 63 °F (at 6:00 PM)
Minimum temperature yesterday: 45 °F (at 7:30 AM)
Average temperature yesterday: 55 °F

Past Weeks' High & Low Weather Summary

 TemperatureHumidityPressure
High75 °F (Apr 14, 4:00 PM)100% (Apr 16, 7:00 AM)30.30 "Hg (Apr 16, 7:00 AM)
Low39 °F (Apr 19, 7:30 AM)20% (Apr 23, 7:30 PM)29.71 "Hg (Apr 26, 5:30 PM)
Average61 °F55%30.05 "Hg
* Reported Apr 13 3:00 PM — Apr 28 3:30 PM, Madrid, Weather by CustomWeather, © 2015

Note: Actual official high and low records may vary slightly from our data, if they occured in-between our weather recording intervals... More about our weather records

Advertising

Madrid weather history for previous 24 hours

 ConditionsComfort  
Time TempWeatherWind HumidityBarometerVisibility
3:30 PM
Tue, Apr 28
64 °FPartly sunny.7 mph46%30.12 "HgN/A
3:00 PM64 °FPartly sunny.2 mph49%30.12 "HgN/A
2:30 PM64 °FScattered clouds.2 mph43%30.12 "HgN/A
2:00 PM64 °FScattered clouds.3 mph46%30.15 "HgN/A
1:30 PM61 °FScattered clouds.3 mph52%30.15 "HgN/A
1:00 PM63 °FPassing clouds.2 mph52%30.15 "HgN/A
12:30 PM63 °FPassing clouds.2 mph52%30.15 "HgN/A
12:00 PM61 °FPassing clouds.2 mph52%30.15 "HgN/A
11:30 AM61 °FPassing clouds.3 mph55%30.15 "HgN/A
11:00 AM57 °FSunny.5 mph63%30.15 "Hg10 mi
10:30 AM57 °FPassing clouds.5 mph63%30.15 "HgN/A
10:00 AM55 °FPassing clouds.3 mph63%30.15 "HgN/A
9:30 AM54 °FSunny.1 mph72%30.15 "Hg10 mi
9:00 AM48 °FSunny.2 mph87%30.12 "Hg10 mi
8:30 AM48 °FSunny.2 mph87%30.12 "Hg10 mi
8:00 AM46 °FPassing clouds.No wind93%30.12 "HgN/A
7:30 AM45 °FClear.No wind93%30.09 "Hg10 mi
7:00 AM43 °FClear.No wind100%30.09 "Hg10 mi
11:00 PM
Mon, Apr 27
54 °FPassing clouds.8 mph72%30.04 "HgN/A
10:30 PM52 °FPassing clouds.10 mph77%30.04 "HgN/A
10:00 PM54 °FScattered clouds.3 mph67%30.01 "HgN/A
9:30 PM55 °FScattered clouds.5 mph63%30.01 "HgN/A
9:00 PM55 °FScattered clouds.8 mph67%29.98 "HgN/A
8:30 PM55 °FLight rain. Scattered clouds.14 mph67%29.98 "HgN/A
8:00 PM59 °FScattered clouds.13 mph55%29.98 "HgN/A
7:30 PM61 °FPassing clouds.12 mph48%29.95 "HgN/A
7:00 PM63 °FScattered clouds.13 mph45%29.98 "HgN/A
6:30 PM63 °FScattered clouds.15 mph45%29.98 "HgN/A
6:00 PM63 °FScattered clouds.12 mph52%29.95 "HgN/A
5:30 PM59 °FScattered clouds.13 mph55%29.98 "HgN/A
5:00 PM59 °FScattered clouds.13 mph55%29.98 "HgN/A
4:30 PM59 °FScattered clouds.15 mph55%29.98 "HgN/A
4:00 PM61 °FScattered clouds.14 mph52%29.98 "HgN/A
Weather by CustomWeather, © 2015

See weather overviewHow to use our weather pages